Location: Bratislava
(48.1500°N, 17.1167°E)
Time: 22:36:55
(UTC+01:00)

ISS - Pass Details

Date: 25 January 2020
Orbit: 415 x 423 km, 51.6° (Epoch: 25 February)

Event Time Altitude Azimuth Distance (km) Brightness Sun altitude
Rises 17:32:56 0° 233° (SW) 2,371 1.7 -9.1°
Reaches altitude 10° 17:35:03 10° 228° (SW) 1,508 0.3 -9.4°
Maximum altitude 17:38:22 55° 151° (SSE) 516 -3.4 -9.9°
Enters shadow 17:40:56 16° 75° (ENE) 1,212 -2.1 -10.3°
